[[{"header":{"parameterUnit":"m.s-1","parameterCategory":1,"la1":30.2991,"la2":30.254,"lo1":-89.0895,"lo2":-89.0444,"dy":0.0017,"dx":0.0017,"nx":28,"ny":28,"refTime":"2025-07-14T09:00:00:Z","depth":0,"parameterNumber":2,"parameterNumberName":"U-component_of_WINDS"},"data":[0,0,0,0,0,0,0,0,0,0,0,0,0,0,0,0,0,0,0,0,0,0,0,0,0,0,0,0,0,0,0,0,0,0,0,0,0,0,0,0,0,0,0,0,0,0,0,0,0,0,0,0,0,0,0,0,0,0,4.0981,4.0982,0,4.1127,4.1128,4.113,4.1096,4.1093,4.1091,4.1088,4.1241,4.1247,4.1254,0,0,0,0,0,0,0,0,0,0,0,0,0,4.0675,4.0681,4.0981,4.0983,4.0984,4.1126,4.1128,4.113,4.1097,4.1093,4.109,4.1087,4.1238,4.1246,4.1254,0,0,0,0,0,0,0,0,0,0,0,0,0,4.0813,4.0683,4.098,4.0985,4.0986,4.1126,4.1129,4.1131,4.1097,4.1093,4.1089,4.1085,4.1236,4.1245,4.1255,4.1401,0,0,4.1286,4.129,0,0,0,0,0,0,0,0,4.0806,4.0825,4.0982,4.0985,4.0987,4.1089,4.1077,4.1222,4.1099,4.1055,4.1088,4.1083,4.1194,4.1207,4.1244,4.1408,4.1414,4.1287,4.1293,4.1297,4.13,0,0,0,0,0,0,0,4.0796,4.0818,4.1039,4.0985,4.0987,4.098,4.0995,4.1104,4.1146,4.1059,4.1057,4.1074,4.1194,4.1234,4.1247,4.1417,4.1286,4.1295,4.1301,4.1305,4.1706,4.1711,0,0,0,0,0,0,4.0784,4.081,4.1034,4.1043,4.0884,4.0989,4.1006,4.106,4.1145,4.1154,4.1078,4.1072,4.1219,4.1235,4.1252,4.1426,4.1297,4.1306,4.1312,4.1702,4.1707,4.1712,0,0,0,0,0,0,4.0778,4.0804,4.1028,4.0926,4.0954,4.0999,4.106,4.1066,4.1105,4.1159,4.1167,4.111,4.1216,4.1238,4.1363,4.1431,4.1311,4.132,4.1696,4.1704,4.171,4.1777,0,0,0,0,0,0,4.0769,4.0802,4.0857,4.0928,4.096,4.1136,4.1065,4.1071,4.1122,4.1116,4.1192,4.12,4.1215,4.1349,4.1373,4.1443,4.1328,4.169,4.1699,4.1708,4.1769,4.1785,4.18,0,0,0,0,0,4.0758,4.0871,4.086,4.0887,4.1029,4.114,4.1159,4.1172,4.1128,4.1184,4.1218,4.1198,4.142,4.1362,4.1389,4.1463,4.1686,4.1697,4.1707,4.1762,4.1782,4.1799,0,0,0,0,0,0,4.0809,4.0881,4.0869,4.1008,4.1068,4.1134,4.1205,4.1193,4.1268,4.1259,4.1273,4.1291,4.1418,4.1454,4.1387,4.1607,4.1547,4.1563,4.1579,4.1599,4.1614,4.1602,4.1336,0,0,0,0,0,4.0836,4.092,4.0978,4.1095,4.1126,4.1161,4.121,4.1214,4.1278,4.1303,4.1347,4.141,4.1494,4.1549,4.1629,4.1775,4.179,4.1839,4.1854,4.1866,4.188,4.1958,4.198,4.1747,4.1747,4.1747,0,0,4.0894,4.0943,4.0995,4.1107,4.1154,4.124,4.1182,4.1276,4.1341,4.1318,4.1438,4.1473,4.1544,4.1679,4.1742,4.1713,4.1948,4.188,4.1889,4.1896,4.1971,4.1993,4.2013,4.1754,4.1753,4.1752,0,0,4.1041,4.1088,4.119,4.1238,4.1309,4.1332,4.1356,4.1425,4.1446,4.1567,4.1551,4.1629,4.1773,4.1824,4.1869,4.2036,4.202,4.2062,4.2142,4.2218,4.2236,4.2252,4.231,4.2331,4.2076,4.2076,4.2076,0,4.1104,4.1232,4.1244,4.1339,4.1388,4.1371,4.1474,4.1521,4.1616,4.165,4.1617,4.1797,4.1844,4.199,4.2031,4.2069,4.2097,4.2053,4.2232,4.2249,4.2264,4.232,4.2342,4.2081,4.208,4.208,4.2079,0,4.1304,4.1394,4.1468,4.1558,4.1616,4.1715,4.1742,4.18,4.18,4.1826,4.1949,4.2005,4.2095,4.2131,4.2133,4.2278,4.2258,4.2229,4.2167,4.2291,4.2343,4.2365,4.2087,4.2085,4.2084,4.2083,0,0,4.1487,4.1582,4.1609,4.1649,4.1727,4.1797,4.1895,4.1983,4.2031,4.2098,4.218,4.2303,4.2275,4.2326,4.2334,4.2401,4.2528,4.2364,4.2366,4.2391,4.269,4.271,4.2735,4.2519,4.2523,4.2526,4.2684,0,4.1641,4.1812,4.1825,4.198,4.2062,4.2047,4.2133,4.219,4.2218,4.2292,4.2323,4.2409,4.2367,4.2398,4.2464,4.2499,4.2588,4.2488,4.2595,4.2599,4.2575,4.2762,4.2784,4.2929,4.2704,4.2708,4.271,0,4.1842,4.1913,4.2075,4.214,4.2175,4.2252,4.2332,4.2404,4.2469,4.2484,4.2541,4.2539,4.2641,4.2578,4.2717,4.2649,4.2694,4.2718,4.2724,4.2733,4.266,4.2774,4.2977,4.2998,4.2743,4.274,4.2738,0,4.1956,4.2093,4.2207,4.2242,4.2322,4.2376,4.2412,4.2472,4.2524,4.2595,4.2629,4.2712,4.2757,4.2821,4.2842,4.2794,4.2981,4.2919,4.2995,4.2995,4.3034,4.3031,4.3244,4.3066,4.3066,4.3066,4.3065,0,4.2125,4.2225,4.2259,4.2329,4.2441,4.2456,4.2566,4.2599,4.2653,4.273,4.2723,4.2795,4.2819,4.2896,4.2914,4.3026,4.3047,4.3062,4.3065,4.3061,4.3059,4.3089,4.3079,4.3071,4.307,4.3069,4.3068,0,4.2271,4.2298,4.2421,4.2487,4.2505,4.2584,4.264,4.2708,4.2734,4.2831,4.2855,4.2896,4.2986,4.3014,4.3123,4.3134,4.3265,4.326,4.3242,4.3242,4.3316,4.3308,4.3555,4.3587,4.339,4.3392,4.3393,0,4.2376,4.2451,4.2524,4.2574,4.2612,4.2694,4.2745,4.2764,4.2818,4.2898,4.2956,4.3045,4.3116,4.3261,4.3301,4.3384,4.338,4.3461,4.3392,4.3386,4.3379,4.3373,4.338,4.3473,4.3475,4.3477,4.3478,0,4.2558,4.2567,4.2642,4.2722,4.2784,4.2848,4.2909,4.2951,4.2978,4.304,4.3131,4.3187,4.3297,4.3385,4.3469,4.3507,4.3497,4.35,4.3521,4.3517,4.3503,4.351,4.3275,4.3493,4.3492,4.3491,4.349,4.3489,4.2685,4.2751,4.2812,4.2896,4.2944,4.3001,4.3067,4.3102,4.3177,4.3267,4.3274,4.3373,4.3436,4.3548,4.359,4.3667,4.3644,4.3676,4.3684,4.3691,4.3696,4.3492,4.3683,4.3683,4.3682,4.3682,4.3682,0,4.2865,4.2904,4.298,4.3066,4.3131,4.3116,4.3183,4.3239,4.3325,4.3384,4.3454,4.3559,4.3644,4.3691,4.3776,4.3829,4.3827,4.3851,4.3846,4.3854,4.3713,4.3684,4.3851,4.3851,4.3851,4.3851,4.3851,4.3851,4.2966,4.3077,4.3094,4.3228,4.3267,4.3362,4.3401,4.3454,4.3501,4.3617,4.3688,4.3717,4.3772,4.3861,4.3938,4.395,4.3981,4.4007,4.4016,4.3882,4.3865,4.3848,4.3821,4.4014,4.4014,4.4151,4.4152,4.4153]},{"header":{"parameterUnit":"m.s-1","parameterCategory":1,"la1":30.2991,"la2":30.254,"lo1":-89.0895,"lo2":-89.0444,"dy":0.0017,"dx":0.0017,"nx":28,"ny":28,"refTime":"2025-07-14T09:00:00:Z","depth":0,"parameterNumber":3,"parameterNumberName":"V-component_of_WINDS"},"data":[0,0,0,0,0,0,0,0,0,0,0,0,0,0,0,0,0,0,0,0,0,0,0,0,0,0,0,0,0,0,0,0,0,0,0,0,0,0,0,0,0,0,0,0,0,0,0,0,0,0,0,0,0,0,0,0,0,0,2.6125,2.6126,0,2.6206,2.6207,2.6208,2.6199,2.6197,2.6196,2.6195,2.6272,2.6275,2.6278,0,0,0,0,0,0,0,0,0,0,0,0,0,2.5957,2.596,2.6125,2.6126,2.6127,2.6206,2.6207,2.6208,2.6199,2.6197,2.6196,2.6194,2.6271,2.6275,2.6278,0,0,0,0,0,0,0,0,0,0,0,0,0,2.6033,2.5961,2.6125,2.6132,2.6134,2.6206,2.6207,2.6209,2.6199,2.6197,2.6195,2.6193,2.6269,2.6274,2.6279,2.6347,0,0,2.6294,2.6296,0,0,0,0,0,0,0,0,2.6029,2.6039,2.613,2.6132,2.6134,2.6191,2.6176,2.6255,2.62,2.6174,2.6195,2.6193,2.6246,2.6253,2.6272,2.6351,2.6354,2.6294,2.6297,2.6299,2.6301,0,0,0,0,0,0,0,2.6023,2.6035,2.6157,2.6131,2.6134,2.6129,2.6138,2.6191,2.622,2.6176,2.6176,2.6186,2.6246,2.6267,2.6274,2.6356,2.6294,2.6298,2.6301,2.6303,2.6494,2.6496,0,0,0,0,0,0,2.6017,2.6031,2.6154,2.616,2.6076,2.6134,2.6144,2.6174,2.6219,2.6224,2.6187,2.6185,2.626,2.6268,2.6276,2.6359,2.6299,2.6304,2.6307,2.6492,2.6495,2.6497,0,0,0,0,0,0,2.6014,2.6028,2.6151,2.6095,2.6111,2.6139,2.6173,2.6177,2.6197,2.6228,2.6232,2.6204,2.6259,2.6269,2.633,2.6362,2.6306,2.631,2.649,2.6493,2.6496,2.6526,0,0,0,0,0,0,2.6009,2.6027,2.6055,2.6096,2.6114,2.6206,2.6175,2.618,2.6207,2.6204,2.6244,2.6249,2.6258,2.6323,2.6335,2.6367,2.6314,2.6487,2.6491,2.6495,2.6522,2.653,2.6536,0,0,0,0,0,2.6003,2.6058,2.6056,2.6071,2.6149,2.6208,2.6217,2.6229,2.6209,2.6236,2.6256,2.6247,2.6356,2.6329,2.6343,2.6377,2.6485,2.649,2.6495,2.6519,2.6528,2.6536,0,0,0,0,0,0,2.6018,2.6064,2.6062,2.6133,2.6167,2.6206,2.624,2.6238,2.6276,2.6272,2.6283,2.6292,2.6353,2.6371,2.634,2.6445,2.6418,2.6426,2.6432,2.6441,2.6447,2.6441,2.6318,0,0,0,0,0,2.603,2.6075,2.6112,2.6171,2.6189,2.6212,2.6238,2.6244,2.6278,2.6291,2.6315,2.6347,2.6389,2.6416,2.6455,2.6525,2.6532,2.6555,2.6562,2.6567,2.6574,2.6611,2.6621,2.6513,2.6513,2.6513,0,0,2.6054,2.6085,2.6113,2.6175,2.6202,2.6247,2.6224,2.6272,2.6305,2.6298,2.6358,2.6376,2.6412,2.6478,2.6508,2.6495,2.6605,2.6574,2.6578,2.6581,2.6617,2.6627,2.6636,2.6516,2.6516,2.6515,0,0,2.6122,2.615,2.6203,2.623,2.6272,2.6287,2.63,2.634,2.6352,2.6413,2.6408,2.6446,2.6518,2.6544,2.6567,2.6645,2.6638,2.6657,2.6693,2.673,2.6738,2.6746,2.6773,2.6783,2.6663,2.6664,2.6664,0,2.6146,2.6216,2.6229,2.6279,2.6306,2.6304,2.6356,2.6382,2.6433,2.6451,2.6436,2.6526,2.655,2.6622,2.6641,2.666,2.6673,2.6652,2.6736,2.6744,2.6751,2.6777,2.6787,2.6666,2.6665,2.6665,2.6665,0,2.6244,2.6292,2.6329,2.6381,2.6413,2.6463,2.6482,2.6512,2.6515,2.6532,2.6592,2.6622,2.6667,2.6685,2.6687,2.6756,2.6747,2.6734,2.6706,2.6763,2.6788,2.6798,2.6668,2.6668,2.6667,2.6667,0,0,2.6322,2.6382,2.6395,2.6419,2.6465,2.6502,2.6552,2.6599,2.6623,2.6659,2.67,2.6761,2.675,2.6775,2.6781,2.6813,2.6872,2.6796,2.6797,2.6809,2.6949,2.6958,2.6969,2.6869,2.687,2.6872,2.6946,0,2.6393,2.6485,2.6498,2.6577,2.6621,2.662,2.6664,2.6695,2.6712,2.675,2.6767,2.681,2.6792,2.6808,2.684,2.6858,2.69,2.6853,2.6905,2.6907,2.6896,2.6982,2.6992,2.706,2.6955,2.6957,2.6958,0,2.6489,2.653,2.6614,2.6655,2.6673,2.6713,2.6756,2.6794,2.6829,2.6839,2.6868,2.687,2.692,2.6891,2.6959,2.6927,2.6949,2.6961,2.6964,2.6968,2.6935,2.6988,2.7082,2.7092,2.6973,2.6972,2.6971,0,2.6537,2.6613,2.6673,2.6693,2.6742,2.6769,2.6791,2.6825,2.6852,2.689,2.6907,2.6949,2.6972,2.7004,2.7017,2.6994,2.7084,2.7056,2.7092,2.7091,2.711,2.7108,2.7207,2.7125,2.7125,2.7125,2.7125,0,2.6615,2.6667,2.6695,2.6732,2.6789,2.6804,2.6859,2.6879,2.691,2.6949,2.695,2.6986,2.7001,2.704,2.705,2.7104,2.7114,2.7122,2.7124,2.7122,2.7121,2.7136,2.7131,2.7127,2.7127,2.7126,2.7126,0,2.6678,2.67,2.6765,2.6807,2.6818,2.6859,2.6893,2.6928,2.6944,2.6994,2.7007,2.7032,2.7077,2.7093,2.7147,2.7154,2.7217,2.7215,2.7206,2.7206,2.7241,2.7237,2.7352,2.7368,2.7276,2.7277,2.7277,0,2.6726,2.6766,2.6813,2.684,2.6863,2.6907,2.6936,2.6951,2.6981,2.7025,2.7054,2.7099,2.7137,2.7209,2.723,2.7272,2.727,2.7308,2.7276,2.7273,2.727,2.7267,2.7271,2.7313,2.7314,2.7315,2.7316,0,2.6809,2.6818,2.686,2.6907,2.6941,2.6978,2.7013,2.7035,2.7055,2.7088,2.7135,2.7165,2.7221,2.7266,2.7308,2.7328,2.7325,2.7326,2.7336,2.7334,2.7327,2.733,2.7221,2.7323,2.7322,2.7322,2.7321,2.7321,2.6866,2.6901,2.694,2.6987,2.7015,2.7049,2.7084,2.7105,2.7146,2.7195,2.7201,2.7252,2.7286,2.7343,2.7365,2.7403,2.7393,2.7408,2.7411,2.7415,2.7417,2.7321,2.7411,2.7411,2.7411,2.741,2.741,0,2.6948,2.6973,2.7017,2.7067,2.7104,2.71,2.7139,2.7169,2.7215,2.7248,2.7285,2.734,2.7383,2.7409,2.7452,2.7478,2.7478,2.7489,2.7486,2.7491,2.7424,2.7411,2.7488,2.7488,2.7488,2.7488,2.7488,2.7488,2.6995,2.7055,2.7069,2.7142,2.7166,2.7218,2.724,2.727,2.7297,2.7358,2.7396,2.7413,2.7443,2.7488,2.7527,2.7534,2.7549,2.7561,2.7566,2.7503,2.7495,2.7488,2.7475,2.7565,2.7565,2.7629,2.763,2.763]}]]